Time,TemperatureF,DewpointF,PressureIn,WindDirection,WindDirectionDegrees,WindSpeedMPH,WindSpeedGustMPH,Humidity,HourlyPrecipIn,Conditions,Clouds,dailyrainin,SolarRadiationWatts/m^2,SoftwareType,DateUTC
2013-11-23 00:00:00,28.0,25.0,-100.00,SW,225,1.0,-999.0,91,-99.99,,,-99.99,0.000000,,2013-11-23 05:00:00,
2013-11-23 00:43:00,28.0,25.0,-100.00,SW,225,1.0,-999.0,91,-99.99,,,-99.99,0.000000,,2013-11-23 05:43:00,
2013-11-23 00:53:00,28.0,25.0,-100.00,SW,225,1.0,-999.0,91,-99.99,,,-99.99,0.000000,,2013-11-23 05:53:00,
2013-11-23 01:00:00,28.0,25.0,-100.00,SW,225,1.0,-999.0,88,-99.99,,,-99.99,0.000000,,2013-11-23 06:00:00,
2013-11-23 01:42:00,28.0,25.0,-100.00,SW,225,1.0,-999.0,88,-99.99,,,-99.99,0.000000,,2013-11-23 06:42:00,
2013-11-23 01:53:00,28.0,25.0,-100.00,SW,225,1.0,-999.0,88,-99.99,,,-99.99,0.000000,,2013-11-23 06:53:00,
2013-11-23 03:00:00,31.0,23.0,-100.00,West,270,4.0,-999.0,70,-99.99,,,-99.99,0.000000,,2013-11-23 08:00:00,
2013-11-23 03:42:00,31.0,23.0,-100.00,West,270,4.0,-999.0,70,-99.99,,,-99.99,0.000000,,2013-11-23 08:42:00,
2013-11-23 03:52:00,31.0,23.0,-100.00,West,270,4.0,-999.0,70,-99.99,,,-99.99,0.000000,,2013-11-23 08:52:00,
2013-11-23 04:00:00,31.0,20.0,-100.00,West,270,4.0,-999.0,63,-99.99,,,-99.99,0.000000,,2013-11-23 09:00:00,
2013-11-23 04:43:00,31.0,20.0,-100.00,West,270,4.0,-999.0,63,-99.99,,,-99.99,0.000000,,2013-11-23 09:43:00,
2013-11-23 04:54:00,31.0,20.0,-100.00,West,270,4.0,-999.0,63,-99.99,,,-99.99,0.000000,,2013-11-23 09:54:00,
2013-11-23 05:00:00,30.0,19.0,-100.00,WNW,292,3.0,-999.0,63,-99.99,,,-99.99,0.000000,,2013-11-23 10:00:00,
2013-11-23 05:42:00,30.0,19.0,-100.00,WNW,292,3.0,-999.0,63,-99.99,,,-99.99,0.000000,,2013-11-23 10:42:00,
2013-11-23 05:52:00,30.0,19.0,-100.00,WNW,292,3.0,-999.0,63,-99.99,,,-99.99,0.000000,,2013-11-23 10:52:00,
2013-11-23 06:00:00,30.0,20.0,-100.00,WNW,292,6.0,-999.0,63,-99.99,,,-99.99,0.000000,,2013-11-23 11:00:00,
2013-11-23 06:43:00,30.0,20.0,-100.00,WNW,292,6.0,-999.0,63,-99.99,,,-99.99,0.000000,,2013-11-23 11:43:00,
2013-11-23 06:52:00,30.0,20.0,-100.00,WNW,292,6.0,-999.0,63,-99.99,,,-99.99,0.000000,,2013-11-23 11:52:00,
2013-11-23 07:00:00,30.0,20.0,-100.00,NW,315,10.0,-999.0,64,-99.99,,,-99.99,0.000000,,2013-11-23 12:00:00,
2013-11-23 07:42:00,30.0,20.0,-100.00,NW,315,10.0,-999.0,64,-99.99,,,-99.99,0.000000,,2013-11-23 12:42:00,
2013-11-23 07:52:00,30.0,20.0,-100.00,NW,315,10.0,-999.0,64,-99.99,,,-99.99,0.000000,,2013-11-23 12:52:00,
2013-11-23 09:00:00,28.0,17.0,-100.00,WNW,292,12.0,-999.0,62,-99.99,,,-99.99,29.000000,,2013-11-23 14:00:00,
2013-11-23 09:42:00,28.0,17.0,-100.00,WNW,292,12.0,-999.0,62,-99.99,,,-99.99,29.000000,,2013-11-23 14:42:00,
2013-11-23 09:52:00,28.0,17.0,-100.00,WNW,292,12.0,-999.0,62,-99.99,,,-99.99,29.000000,,2013-11-23 14:52:00,
2013-11-23 10:00:00,28.0,14.0,-100.00,WNW,292,11.0,-999.0,56,-99.99,,,-99.99,117.160004,,2013-11-23 15:00:00,
2013-11-23 10:43:00,28.0,14.0,-100.00,WNW,292,11.0,-999.0,56,-99.99,,,-99.99,117.160004,,2013-11-23 15:43:00,
2013-11-23 10:54:00,28.0,14.0,-100.00,WNW,292,11.0,-999.0,56,-99.99,,,-99.99,117.160004,,2013-11-23 15:54:00,
2013-11-23 11:00:00,27.0,15.0,-100.00,WNW,292,13.0,-999.0,59,-99.99,,,-99.99,164.720001,,2013-11-23 16:00:00,
2013-11-23 11:43:00,27.0,15.0,-100.00,WNW,292,13.0,-999.0,59,-99.99,,,-99.99,164.720001,,2013-11-23 16:43:00,
2013-11-23 11:53:00,27.0,15.0,-100.00,WNW,292,13.0,-999.0,59,-99.99,,,-99.99,164.720001,,2013-11-23 16:53:00,
2013-11-23 12:00:00,26.0,16.0,-100.00,WNW,292,12.0,-999.0,65,-99.99,,,-99.99,124.120003,,2013-11-23 17:00:00,
2013-11-23 12:42:00,26.0,16.0,-100.00,WNW,292,12.0,-999.0,65,-99.99,,,-99.99,124.120003,,2013-11-23 17:42:00,
2013-11-23 12:52:00,26.0,16.0,-100.00,WNW,292,12.0,-999.0,65,-99.99,,,-99.99,124.120003,,2013-11-23 17:52:00,
2013-11-23 13:00:00,25.0,18.0,-100.00,NW,315,12.0,-999.0,75,-99.99,,,-99.99,192.559998,,2013-11-23 18:00:00,
2013-11-23 13:42:00,25.0,18.0,-100.00,NW,315,12.0,-999.0,75,-99.99,,,-99.99,192.559998,,2013-11-23 18:42:00,
2013-11-23 13:52:00,25.0,18.0,-100.00,NW,315,12.0,-999.0,75,-99.99,,,-99.99,192.559998,,2013-11-23 18:52:00,
2013-11-23 15:00:00,23.0,17.0,-100.00,West,270,11.0,-999.0,76,-99.99,,,-99.99,99.760002,,2013-11-23 20:00:00,
2013-11-23 15:42:00,23.0,17.0,-100.00,West,270,11.0,-999.0,76,-99.99,,,-99.99,99.760002,,2013-11-23 20:42:00,
2013-11-23 15:53:00,23.0,17.0,-100.00,West,270,11.0,-999.0,76,-99.99,,,-99.99,99.760002,,2013-11-23 20:53:00,
2013-11-23 16:00:00,23.0,14.0,-100.00,SW,225,9.0,-999.0,67,-99.99,,,-99.99,56.840000,,2013-11-23 21:00:00,
2013-11-23 16:43:00,23.0,14.0,-100.00,SW,225,9.0,-999.0,67,-99.99,,,-99.99,56.840000,,2013-11-23 21:43:00,
2013-11-23 16:53:00,23.0,14.0,-100.00,SW,225,9.0,-999.0,67,-99.99,,,-99.99,56.840000,,2013-11-23 21:53:00,
2013-11-23 18:00:00,20.0,16.0,-100.00,ESE,112,7.0,-999.0,82,-99.99,,,-99.99,1.160000,,2013-11-23 23:00:00,
2013-11-23 18:42:00,20.0,16.0,-100.00,ESE,112,7.0,-999.0,82,-99.99,,,-99.99,1.160000,,2013-11-23 23:42:00,
2013-11-23 18:53:00,20.0,16.0,-100.00,ESE,112,7.0,-999.0,82,-99.99,,,-99.99,1.160000,,2013-11-23 23:53:00,
2013-11-23 19:00:00,18.0,15.0,-100.00,ENE,67,5.0,-999.0,87,-99.99,,,-99.99,0.000000,,2013-11-24 00:00:00,
2013-11-23 19:42:00,18.0,15.0,-100.00,ENE,67,5.0,-999.0,87,-99.99,,,-99.99,0.000000,,2013-11-24 00:42:00,
2013-11-23 19:52:00,18.0,15.0,-100.00,ENE,67,5.0,-999.0,87,-99.99,,,-99.99,0.000000,,2013-11-24 00:52:00,
2013-11-23 21:00:00,18.0,16.0,-100.00,NE,45,4.0,-999.0,91,-99.99,,,-99.99,0.000000,,2013-11-24 02:00:00,
2013-11-23 21:42:00,18.0,16.0,-100.00,NE,45,4.0,-999.0,91,-99.99,,,-99.99,0.000000,,2013-11-24 02:42:00,
2013-11-23 21:52:00,18.0,16.0,-100.00,NE,45,4.0,-999.0,91,-99.99,,,-99.99,0.000000,,2013-11-24 02:52:00,
2013-11-23 22:00:00,-999.0,-99.9,-100.00,East,90,2.0,-999.0,-999,-99.99,,,-99.99,,,2013-11-24 03:00:00,
2013-11-23 22:43:00,18.0,16.0,-100.00,East,90,2.0,-999.0,92,-99.99,,,-99.99,0.000000,,2013-11-24 03:43:00,
2013-11-23 22:54:00,18.0,16.0,-100.00,East,90,2.0,-999.0,92,-99.99,,,-99.99,0.000000,,2013-11-24 03:54:00,
2013-11-23 23:00:00,17.0,15.0,-100.00,NE,45,1.0,-999.0,92,-99.99,,,-99.99,0.000000,,2013-11-24 04:00:00,
2013-11-23 23:43:00,17.0,15.0,-100.00,NE,45,1.0,-999.0,92,-99.99,,,-99.99,0.000000,,2013-11-24 04:43:00,
2013-11-23 23:53:00,17.0,15.0,-100.00,NE,45,1.0,-999.0,92,-99.99,,,-99.99,0.000000,,2013-11-24 04:53:00,